Orbital Elements at Epoch 2459000.5 (2020-May-31.0) TDB
Reference: JPL 33 (heliocentric ecliptic J2000)
Element | Value | Uncertainty (1-sigma) | Units |
e | .1288860387621852 | 3.3451e-08 | |
a | 2.772158972751446 | 1.0614e-08 | au |
q | 2.414866383934464 | 9.2501e-08 | au |
i | 14.38582108673272 | 4.1115e-06 | deg |
node | 219.0652194217284 | 1.3134e-05 | deg |
peri | 49.40494469333451 | 2.0754e-05 | deg |
M | 65.5765548117085 | 1.4742e-05 | deg |
tp | 2458693.405724969163 (2019-Jul-28.90572497) | 6.8932e-05 | TDB |
period | 1685.875986143788 4.62 | 9.6823e-06 2.651e-08 | d yr |
n | .2135388385378517 | 1.2264e-09 | deg/d |
Q | 3.129451561568429 | 1.1982e-08 | au |
|
| | Orbit Determination Parameters
Additional Information
|